Location: Schommer Observatory
(40.5200°N, 74.4500°W)
Time: 07:25:59
(UTC-04:00)

Envisat - Pass Details

Date: 10 October 2017
Orbit: 764 x 766 km, 98.2° (Epoch: 24 October)

Event Time Altitude Azimuth Distance (km) Brightness Sun altitude
Exits shadow 21:07:41 51° 302° (WNW) 959 3.7 -31.4°
Drops below altitude 10° 21:11:49 10° 340° (NNW) 2,310 5.9 -32.1°
Sets 21:14:10 0° 344° (NNW) 3,240 6.7 -32.5°
